TITAN 4 CENTAUR R/B, 22989

Orbit data source: Space-Track

TITAN 4 CENTAUR R/B, 22989 is space debris in GEO originally from a launch on Mon, 07 Feb 1994 UTC launched from the Air Force Eastern Test Range (AFETR). Debris objects in space refer to the collection of defunct objects orbiting the Earth. Examples of debris include non-operational satellites, rocket bodies, and fragments generated from explosions, collisions, or faulty payload assembly.

Loading next visibility...
Identifier
22989, 1994-009B
Orbit
GEO
Last TLE update
22 hours ago
Origin
Manufacturer
LMA/San Diego
Mission
Spacecraft
Bus & Motor
CENTAUR T, Unknown motor
Mass
~2,775 kg wet, ~2,775 kg dry
Launch date (UTC)
1994-02-07 (31 years ago)
Launch vehicle
Unknown
Launch site
Air Force Eastern Test Range (AFETR)
Object type
Payload
Rocket body
Debris
Shape & HBR
Cyl, 9 m
Radar Cross Section
37.970 m²

Expand to show TLE details & history

TLE from 22 hours ago
0 TITAN 4 CENTAUR R/B
1 22989U 94009B   25174.80692356  .00000067  00000-0  00000-0 0  9993
2 22989  16.3814  26.3413 0013270 223.2945 136.5996  1.00584726 21683
Epoch: 2025-06-23T19:21Z
TLE epoch observation values (Epoch: 2025-06-23T19:21:58.195Z)
Latitude
-0°
Longitude
-176.35709°
Altitude
35,739.322 km
Speed
3.075 km/s
True Right ascension
01h 45m 23s
True Declination
0° 00' 00"
Sunlit
Object was in daylight at epoch
Visualization orbit readout
Latitude
-7.81187°
Longitude
155.87608°
Altitude
35,716.981 km
Speed
3.077 km/s
Apparent Right ascension
23h 28m 10s
Apparent Declination
-13° 40' 28"
Sunlit
Object is in daylight
Visualization observer readout
Local Sidereal Time
04:31:01
Azimuth
250.406° W
Elevation
1.847°
Doppler factor
1
Orbital elements
Apogee altitude
35,755.879 km
Perigee altitude
35,644.204 km
Semi-major axis
42,078.178 km
Eccentricity
0.00133
Inclination
16.3814°
RAAN
26.3413°
Arg. of periapsis
223.2945°
True anomaly
Unknown
Mean anomaly
136.5996°
Eccentric anomaly
Unknown
Mean motion
0.25145 °/min
Orbital period
1,431.68 mins
BSTAR
0
Loading historical data...
22989 neighbors
Loading maneuver chart data...
Loading SW <> Apogee altitude chart data...
Loading historical data...
Loading historical data...
Loading historical data...
Loading historical data...
Loading historical data...
Loading historical data...
Loading historical data...
Other satellites on launch #9 in the year 1994 (1994-02-07 UTC)

TITAN 4 CENTAUR R/B Visibility forecast

Observer location: undefined°, undefined°

Span
Click to sort rows by Start time (UTC) header in descending order
Start Az.
Max El. time (UTC)
Max El. Az.
Max El.
End time (UTC)
End Az.
558 mins2025-06-24 20:48:02.758Z262.679° W2025-06-25 01:54:02.758Z269.888° W16.72°2025-06-25 06:06:02.758Z259.865° W
|